Flag for Germany Weather past 2 weeks in Witzenhausen, Hesse, Germany

Now
66 °F

Scattered clouds.


Feels Like: 66 °F
Forecast: 45 / 69 °F
Wind: 12 mph from Northwest

Location: Kassel / Calden

Current Time: May 23, 2015 at 2:31:25 PM

Latest Report: May 23, 2015 at 1:50 PM


Visibility: N/A

Pressure: 30.12 "Hg

Humidity: 49%

Dew point: 46 °F

Location of WitzenhausenLocation

Historic Weather in Witzenhausen — Graph

°F

Witzenhausen temperature yesterday

Maximum temperature yesterday: 66 °F (at 5:20 PM)
Minimum temperature yesterday: 43 °F (at 6:20 AM)
Average temperature yesterday: 59 °F

Past Weeks' High & Low Weather Summary

 TemperatureHumidityPressure
High79 °F (May 12, 2:50 PM)94% (May 16, 8:50 PM)30.33 "Hg (May 16, 8:50 PM)
Low37 °F (May 16, 5:50 AM)34% (May 22, 3:20 PM)29.65 "Hg (May 18, 7:20 PM)
Average57 °F59%30.06 "Hg
* Reported May 8 1:20 PM — May 23 1:20 PM, Witzenhausen, Weather by CustomWeather, © 2015

Note: Actual official high and low records may vary slightly from our data, if they occured in-between our weather recording intervals... More about our weather records

Advertising

Witzenhausen weather history for previous 24 hours

 ConditionsComfort  
Time TempWeatherWind HumidityBarometerVisibility
1:20 PM
Sat, May 23
64 °FBroken clouds.6 mph56%30.12 "HgN/A
12:50 PM63 °FBroken clouds.7 mph64%30.12 "HgN/A
12:20 PM61 °FSunny.3 mph63%30.15 "Hg10 mi
11:50 AM63 °FSunny.1 mph64%30.15 "Hg10 mi
11:20 AM59 °FSunny.2 mph68%30.15 "Hg10 mi
10:50 AM59 °FSunny.2 mph68%30.15 "Hg10 mi
10:20 AM57 °FSunny.2 mph72%30.15 "Hg10 mi
9:50 AM57 °FSunny.6 mph72%30.15 "Hg10 mi
9:20 AM55 °FSunny.5 mph72%30.15 "Hg10 mi
8:50 AM55 °FPassing clouds.3 mph72%30.15 "HgN/A
8:20 AM54 °FSunny.5 mph77%30.15 "Hg10 mi
7:50 AM54 °FSunny.5 mph82%30.15 "Hg10 mi
7:20 AM54 °FSunny.2 mph82%30.15 "Hg10 mi
6:50 AM52 °FSunny.1 mph88%30.12 "Hg10 mi
6:20 AM52 °FSunny.1 mph88%30.15 "Hg10 mi
9:50 PM
Fri, May 22
59 °FSunny.5 mph63%30.21 "Hg10 mi
9:20 PM59 °FSunny.5 mph63%30.21 "Hg10 mi
8:50 PM61 °FSunny.3 mph55%30.18 "Hg10 mi
8:20 PM61 °FSunny.6 mph55%30.18 "Hg10 mi
7:50 PM63 °FSunny.8 mph52%30.18 "Hg10 mi
7:20 PM63 °FSunny.5 mph49%30.18 "Hg10 mi
6:50 PM63 °FSunny.7 mph45%30.18 "Hg10 mi
6:20 PM64 °FPassing clouds.5 mph46%30.21 "HgN/A
5:50 PM64 °FPassing clouds.7 mph43%30.21 "HgN/A
5:20 PM66 °FSunny.6 mph37%30.21 "Hg10 mi
4:50 PM64 °FPassing clouds.6 mph37%30.21 "HgN/A
4:20 PM64 °FPassing clouds.5 mph34%30.24 "HgN/A
3:50 PM64 °FPassing clouds.3 mph34%30.24 "HgN/A
3:20 PM64 °FPassing clouds.3 mph34%30.24 "HgN/A
2:50 PM63 °FSunny.6 mph37%30.24 "Hg10 mi
2:20 PM64 °FSunny.3 mph37%30.27 "Hg10 mi
Weather by CustomWeather, © 2015

See weather overviewHow to use our weather pages